User: anonymous   Login
Location: Unspecified
(0.0000°N, 0.0000°E)
Time: 02:48:59
(UTC+00:00)
Language:

Triad OI-1X - Orbit

View from above orbital plane
View from above orbital plane
View from above satellite
View from above satellite

Ground track
Ground track

The orbit data is extracted from the following two-line orbital elements,

1  6173U 72069A   17147.51591095 +.00000147 +00000-0 +34762-4 0  9994
2  6173 089.8766 230.4829 0053893 159.7807 315.9111 14.48801588351542
Epoch (UTC): 27 May 2017 12:22:54
Eccentricity: 0.0053893
inclination: 89.8766°
perigee height: 691 km
apogee height: 768 km
right ascension of ascending node: 230.4829°
argument of perigee: 159.7807°
revolutions per day: 14.48801588
mean anomaly at epoch: 315.9111°
orbit number at epoch: 35154

The dashed part of the orbit path shows where the satellite is in the earth's shadow,  

DLR